Weather in Mae Sai

Thailand     20°25′47″N   99°53′10″E
temp.,
°C
wind,
m/s
gust,
m/s
humid.,
%
clouds,
%
prec.,
mm/h
press.,
hPa
HPBL,
m
15 may, sat
sat1501:00+24nnw116975 0.0 100612
04:00+23nnw117774 0.0 100612
07:00+24nnw007018 0.0 1008129
10:00+33s124389 0.0 10081071
13:00+37sse262851 0.0 10043260
16:00+35sse253126 0.0 10011238
19:00+30sw014610 0.0 100211
22:00+28ne1151100 0.0 100415
16 may, sun
sun1601:00+26nnw115750 0.0 100512
04:00+24nnw116584 0.0 100513
07:00+25n116277 0.0 1008108
10:00+34s12355 0.0 10081065
13:00+39sse25214 0.0 10043323
16:00+40sw241613 0.0 10003985
19:00+32sw113437 0.0 100218
22:00+30ese114298 0.0 100517
17 may, mon
mon1701:00+27n115553 0.0 100515
04:00+25nnw116218 0.0 100515
07:00+26nnw015849 0.0 1008124
10:00+34s124196 0.0 10081190
13:00+39s1326100 0.0 10042354
16:00+39sse252281 0.0 10003221
19:00+31s244322 0.0 100291
22:00+28se115396 0.0 100517
18 may, tue
tue1801:00+27se0158100 0.0 100519
04:00+25nnw006950 0.0 100512
07:00+26sse0165100 0.0 1007154
10:00+34s124219 0.0 10071120
13:00+39sse232730 0.0 10032716
16:00+33s244450 0.2 1001634
19:00+25sse138196 1.2 1005111
22:00+24sse1187100 0.2 100716
19 may, wed
wed1901:00+23n1194100 0.8 100715
04:00+22nne009670 0.0 100616
07:00+23sse019248 0.0 1007114
10:00+31s235643 0.0 10071032
13:00+37sse253537 0.0 10032162
16:00+24se2396100 9.0 1003138
19:00+23ese1297100 9.9 100596
22:00+23nne1196100 0.2 100743